| time (UTC) | temp F | wind direction | speed MPH | gust MPH | rain 1hr in | rain 24hr in | rain mn in | humidity % | barometer mb |
| 20260906033507 | 71 | 18 | 7.0 | 12.0 | 0.00 | 0.00 | 0.00 | 83 | 1012.1 |
| 20260906033007 | 71 | 9 | 9.0 | 12.0 | 0.00 | 0.00 | 0.00 | 83 | 1012.1 |
| 20260906032007 | 71 | 346 | 5.0 | 9.0 | 0.00 | 0.00 | 0.00 | 82 | 1012.1 |
| 20260906031007 | 71 | 342 | 5.0 | 9.0 | 0.00 | 0.00 | 0.00 | 83 | 1012.1 |
| 20260906030506 | 71 | 354 | 5.0 | 9.0 | 0.00 | 0.00 | 0.00 | 83 | 1012.1 |
| 20260906030006 | 71 | 48 | 5.0 | 9.0 | 0.00 | 0.00 | 0.00 | 83 | 1012.1 |
| 20260906025507 | 70 | 314 | 1.0 | 7.0 | 0.00 | 0.00 | 0.00 | 83 | 1012.1 |
| 20260906024507 | 69 | 353 | 2.0 | 5.0 | 0.00 | 0.00 | 0.00 | 83 | 1012.1 |
| 20260906024007 | 69 | 311 | 2.0 | 5.0 | 0.00 | 0.00 | 0.00 | 83 | 1012.1 |
| 20260906023507 | 69 | 288 | 2.0 | 5.0 | 0.00 | 0.00 | 0.00 | 83 | 1012.1 |
| 20260906022506 | 69 | 294 | 2.0 | 5.0 | 0.00 | 0.00 | 0.00 | 83 | 1012.1 |
| 20260906022007 | 69 | 293 | 2.0 | 5.0 | 0.00 | 0.00 | 0.00 | 83 | 1012.1 |
| 20260906021506 | 69 | 283 | 2.0 | 5.0 | 0.00 | 0.00 | 0.00 | 83 | 1012.1 |
| 20260906021007 | 69 | 285 | 1.0 | 2.0 | 0.00 | 0.00 | 0.00 | 83 | 1012.1 |
| 20260906020507 | 69 | 274 | 1.0 | 5.0 | 0.00 | 0.00 | 0.00 | 83 | 1012.1 |
| 20260906020006 | 69 | 267 | 2.0 | 5.0 | 0.00 | 0.00 | 0.00 | 83 | 1012.1 |
| 20260906015507 | 69 | 261 | 2.0 | 5.0 | 0.00 | 0.00 | 0.00 | 83 | 1012.1 |
| 20260906015008 | 69 | 279 | 5.0 | 5.0 | 0.00 | 0.00 | 0.00 | 83 | 1012.1 |
| 20260906014506 | 69 | 280 | 5.0 | 5.0 | 0.00 | 0.00 | 0.00 | 83 | 1012.1 |
| 20260906014007 | 69 | 270 | 5.0 | 5.0 | 0.00 | 0.00 | 0.00 | 82 | 1012.1 |
| 20260906013506 | 70 | 263 | 2.0 | 5.0 | 0.00 | 0.00 | 0.00 | 81 | 1012.1 |
| 20260906013007 | 70 | 276 | 2.0 | 5.0 | 0.00 | 0.00 | 0.00 | 81 | 1012.1 |
| 20260906012506 | 70 | 265 | 1.0 | 5.0 | 0.00 | 0.00 | 0.00 | 80 | 1012.1 |
| 20260906012007 | 70 | 304 | 0.0 | 5.0 | 0.00 | 0.00 | 0.00 | 79 | 1012.1 |
| 20260906011507 | 71 | 297 | 1.0 | 5.0 | 0.00 | 0.00 | 0.00 | 79 | 1012.1 |
| 20260906005506 | 71 | 314 | 2.0 | 7.0 | 0.00 | 0.00 | 0.00 | 76 | 1012.1 |
| 20260906005007 | 71 | 21 | 0.0 | 7.0 | 0.00 | 0.00 | 0.00 | 76 | 1012.1 |
| 20260906004507 | 71 | 287 | 3.0 | 7.0 | 0.00 | 0.00 | 0.00 | 76 | 1012.1 |
| 20260906004007 | 71 | 344 | 2.0 | 5.0 | 0.00 | 0.00 | 0.00 | 77 | 1012.1 |
| 20260906003507 | 71 | 357 | 2.0 | 5.0 | 0.00 | 0.00 | 0.00 | 76 | 1012.1 |
| 20260906003007 | 71 | 341 | 2.0 | 5.0 | 0.00 | 0.00 | 0.00 | 76 | 1012.1 |
| 20260906002506 | 71 | 347 | 1.0 | 5.0 | 0.00 | 0.00 | 0.00 | 76 | 1012.1 |
| 20260906002007 | 71 | 278 | 0.0 | 5.0 | 0.00 | 0.00 | 0.00 | 76 | 1012.1 |
| 20260906001007 | 71 | 314 | 0.0 | 5.0 | 0.00 | 0.00 | 0.00 | 76 | 1012.1 |
| 20260906000006 | 71 | 0 | 0.0 | 5.0 | 0.00 | 0.00 | 0.00 | 75 | 1012.1 |
| 20260905235507 | 71 | 1 | 1.0 | 5.0 | 0.00 | 0.00 | 0.00 | 76 | 1012.1 |
| 20260905235007 | 71 | 325 | 0.0 | 5.0 | 0.00 | 0.00 | 0.00 | 76 | 1012.1 |
| 20260905234506 | 71 | 11 | 1.0 | 2.0 | 0.00 | 0.00 | 0.00 | 76 | 1012.1 |
| 20260905234007 | 71 | 13 | 0.0 | 5.0 | 0.00 | 0.00 | 0.00 | 75 | 1012.1 |
| 20260905233007 | 71 | 19 | 1.0 | 5.0 | 0.00 | 0.00 | 0.00 | 75 | 1012.1 |
| 20260905232506 | 71 | 359 | 0.0 | 5.0 | 0.00 | 0.00 | 0.00 | 74 | 1012.1 |
| 20260905232007 | 71 | 327 | 0.0 | 5.0 | 0.00 | 0.00 | 0.00 | 74 | 1012.1 |
| 20260905231506 | 71 | 348 | 0.0 | 2.0 | 0.00 | 0.00 | 0.00 | 73 | 1012.1 |
| 20260905231007 | 71 | 12 | 0.0 | 2.0 | 0.00 | 0.00 | 0.00 | 73 | 1012.1 |
| 20260905230507 | 72 | 3 | 0.0 | 2.0 | 0.00 | 0.00 | 0.00 | 72 | 1012.1 |
| 20260905230007 | 32 | 28 | 0.0 | 0.0 | 0.00 | 0.00 | 0.00 | 100 | |
| 20260905225007 | 73 | 28 | 0.0 | 5.0 | 0.00 | 0.00 | 0.00 | 72 | 1012.1 |
| 20260905224506 | 73 | 21 | 1.0 | 5.0 | 0.00 | 0.00 | 0.00 | 72 | 1012.1 |
| 20260905224007 | 74 | 4 | 0.0 | 2.0 | 0.00 | 0.00 | 0.00 | 71 | 1012.1 |
| 20260905223507 | 74 | 48 | 0.0 | 2.0 | 0.00 | 0.00 | 0.00 | 71 | 1012.1 |
| 20260905223007 | 74 | 56 | 0.0 | 5.0 | 0.00 | 0.00 | 0.00 | 71 | 1012.1 |
| 20260905222507 | 74 | 42 | 2.0 | 5.0 | 0.00 | 0.00 | 0.00 | 71 | 1012.1 |
| 20260905222007 | 75 | 57 | 2.0 | 5.0 | 0.00 | 0.00 | 0.00 | 70 | 1012.1 |
| 20260905221506 | 75 | 58 | 1.0 | 5.0 | 0.00 | 0.00 | 0.00 | 70 | 1012.1 |
| 20260905221007 | 75 | 43 | 0.0 | 5.0 | 0.00 | 0.00 | 0.00 | 71 | 1012.1 |
| 20260905220507 | 75 | 32 | 0.0 | 2.0 | 0.00 | 0.00 | 0.00 | 71 | 1012.1 |
| 20260905220007 | 75 | 46 | 0.0 | 0.0 | 0.00 | 0.00 | 0.00 | 70 | 1011.8 |
| 20260905215506 | 75 | 31 | 0.0 | 5.0 | 0.00 | 0.00 | 0.00 | 71 | 1011.1 |
| 20260905214506 | 74 | 36 | 2.0 | 5.0 | 0.00 | 0.00 | 0.00 | 71 | 1011.4 |
| 20260905214006 | 74 | 27 | 1.0 | 5.0 | 0.00 | 0.00 | 0.00 | 71 | 1011.1 |
| 20260905212506 | 74 | 9 | 2.0 | 5.0 | 0.00 | 0.00 | 0.00 | 72 | 1011.1 |
| 20260905212007 | 74 | 41 | 2.0 | 7.0 | 0.00 | 0.00 | 0.00 | 72 | 1011.1 |
| 20260905211506 | 73 | 20 | 5.0 | 7.0 | 0.00 | 0.00 | 0.00 | 72 | 1011.1 |
| 20260905211007 | 74 | 21 | 2.0 | 7.0 | 0.00 | 0.00 | 0.00 | 72 | 1011.1 |
| 20260905210507 | 73 | 353 | 5.0 | 7.0 | 0.00 | 0.00 | 0.00 | 71 | 1011.1 |
| 20260905210006 | 74 | 13 | 5.0 | 7.0 | 0.00 | 0.00 | 0.00 | 71 | 1011.1 |
| 20260905205506 | 74 | 13 | 3.0 | 7.0 | 0.00 | 0.00 | 0.00 | 71 | 1010.1 |
| 20260905205007 | 74 | 13 | 2.0 | 5.0 | 0.00 | 0.00 | 0.00 | 70 | 1010.6 |
| 20260905204506 | 74 | 18 | 3.0 | 5.0 | 0.00 | 0.00 | 0.00 | 71 | 1010.4 |
| 20260905204007 | 73 | 9 | 5.0 | 7.0 | 0.00 | 0.00 | 0.00 | 71 | 1010.9 |
| 20260905203507 | 74 | 11 | 2.0 | 7.0 | 0.00 | 0.00 | 0.00 | 71 | 1010.8 |
| 20260905203007 | 74 | 43 | 1.0 | 5.0 | 0.00 | 0.00 | 0.00 | 71 | 1010.6 |
| 20260905202506 | 74 | 357 | 2.0 | 7.0 | 0.00 | 0.00 | 0.00 | 71 | 1011.1 |
| 20260905202007 | 74 | 354 | 2.0 | 7.0 | 0.00 | 0.00 | 0.00 | 71 | 1011.1 |
| 20260905201507 | 73 | 356 | 5.0 | 7.0 | 0.00 | 0.00 | 0.00 | 71 | 1011.1 |
| 20260905201007 | 74 | 28 | 2.0 | 7.0 | 0.00 | 0.00 | 0.00 | 71 | 1011.1 |
| 20260905200507 | 74 | 329 | 4.0 | 7.0 | 0.00 | 0.00 | 0.00 | 71 | 1011.1 |
| 20260905200006 | 73 | 33 | 4.0 | 7.0 | 0.00 | 0.00 | 0.00 | 71 | 1011.1 |
| 20260905195007 | 73 | 0 | 5.0 | 7.0 | 0.00 | 0.00 | 0.00 | 71 | 1011.1 |
| 20260905194506 | 74 | 15 | 2.0 | 7.0 | 0.00 | 0.00 | 0.00 | 71 | 1011.1 |
| 20260905194007 | 75 | 9 | 0.0 | 5.0 | 0.00 | 0.00 | 0.00 | 71 | 1011.1 |
| 20260905193506 | 74 | 34 | 2.0 | 5.0 | 0.00 | 0.00 | 0.00 | 72 | 1011.3 |
| 20260905193007 | 74 | 5 | 2.0 | 5.0 | 0.00 | 0.00 | 0.00 | 72 | 1011.1 |
| 20260905192007 | 74 | 1 | 2.0 | 7.0 | 0.00 | 0.00 | 0.00 | 73 | 1011.3 |
| 20260905191505 | 74 | 339 | 2.0 | 5.0 | 0.00 | 0.00 | 0.00 | 72 | 1011.9 |
| 20260905191007 | 74 | 353 | 2.0 | 5.0 | 0.00 | 0.00 | 0.00 | 73 | 1012.1 |
| 20260905185506 | 73 | 17 | 2.0 | 5.0 | 0.00 | 0.00 | 0.00 | 74 | 1011.9 |
| 20260905184506 | 73 | 146 | 2.0 | 5.0 | 0.00 | 0.00 | 0.00 | 75 | 1012.1 |
| 20260905183507 | 73 | 313 | 2.0 | 5.0 | 0.00 | 0.00 | 0.00 | 76 | 1011.1 |
| 20260905183007 | 73 | 331 | 2.0 | 5.0 | 0.00 | 0.00 | 0.00 | 76 | 1011.6 |
| 20260905182506 | 73 | 8 | 2.0 | 5.0 | 0.00 | 0.00 | 0.00 | 76 | 1011.3 |
| 20260905182006 | 73 | 327 | 2.0 | 7.0 | 0.00 | 0.00 | 0.00 | 76 | 1012.1 |
| 20260905181506 | 72 | 320 | 5.0 | 7.0 | 0.00 | 0.00 | 0.00 | 76 | 1011.4 |
| 20260905181008 | 72 | 18 | 2.0 | 7.0 | 0.00 | 0.00 | 0.00 | 76 | 1011.1 |
| 20260905180508 | 72 | 357 | 3.0 | 7.0 | 0.00 | 0.00 | 0.00 | 76 | 1011.8 |
| 20260905180006 | 72 | 28 | 2.0 | 7.0 | 0.00 | 0.00 | 0.00 | 76 | 1012.1 |
| 20260905175506 | 73 | 333 | 2.0 | 7.0 | 0.00 | 0.00 | 0.00 | 77 | 1012.1 |
| 20260905174505 | 73 | 14 | 2.0 | 7.0 | 0.00 | 0.00 | 0.00 | 77 | 1012.1 |
| 20260905174006 | 73 | 8 | 2.0 | 5.0 | 0.00 | 0.00 | 0.00 | 76 | 1011.3 |
| 20260905173507 | 73 | 356 | 2.0 | 5.0 | 0.00 | 0.00 | 0.00 | 77 | 1012.1 |
| 20260905173006 | 72 | 351 | 2.0 | 5.0 | 0.00 | 0.00 | 0.00 | 78 | 1012.1 |
| 20260905172506 | 72 | 354 | 2.0 | 7.0 | 0.00 | 0.00 | 0.00 | 79 | 1012.1 |
| 20260905172006 | 71 | 9 | 2.0 | 7.0 | 0.00 | 0.00 | 0.00 | 79 | 1012.1 |
| 20260905171506 | 71 | 36 | 5.0 | 7.0 | 0.00 | 0.00 | 0.00 | 79 | 1012.1 |
| 20260905171006 | 71 | 25 | 5.0 | 9.0 | 0.00 | 0.00 | 0.00 | 79 | 1011.6 |
| 20260905170507 | 71 | 317 | 5.0 | 9.0 | 0.00 | 0.00 | 0.00 | 79 | 1011.1 |
| 20260905170005 | 71 | 14 | 5.0 | 9.0 | 0.00 | 0.00 | 0.00 | 79 | 1011.2 |
| 20260905165006 | 71 | 20 | 5.0 | 9.0 | 0.00 | 0.00 | 0.00 | 79 | 1011.6 |
| 20260905164506 | 71 | 10 | 5.0 | 7.0 | 0.00 | 0.00 | 0.00 | 79 | 1012.1 |
| 20260905164007 | 71 | 26 | 5.0 | 7.0 | 0.00 | 0.00 | 0.00 | 79 | 1012.1 |
| 20260905163506 | 71 | 33 | 5.0 | 7.0 | 0.00 | 0.00 | 0.00 | 79 | 1012.1 |
| 20260905163006 | 71 | 35 | 5.0 | 9.0 | 0.00 | 0.00 | 0.00 | 79 | 1012.1 |
| 20260905162506 | 70 | 357 | 6.0 | 9.0 | 0.00 | 0.00 | 0.00 | 78 | 1012.1 |
| 20260905162006 | 71 | 1 | 5.0 | 9.0 | 0.00 | 0.00 | 0.00 | 79 | 1012.1 |
| 20260905161506 | 71 | 11 | 5.0 | 9.0 | 0.00 | 0.00 | 0.00 | 78 | 1012.1 |
| 20260905161007 | 71 | 12 | 5.0 | 7.0 | 0.00 | 0.00 | 0.00 | 78 | 1012.1 |
| 20260905160006 | 71 | 24 | 5.0 | 9.0 | 0.00 | 0.00 | 0.00 | 79 | 1012.1 |
| 20260905155006 | 71 | 5 | 5.0 | 7.0 | 0.00 | 0.00 | 0.00 | 78 | 1012.1 |
| 20260905154505 | 71 | 32 | 3.0 | 7.0 | 0.00 | 0.00 | 0.00 | 79 | 1012.1 |
| 20260905154007 | 71 | 356 | 2.0 | 7.0 | 0.00 | 0.00 | 0.00 | 79 | 1012.1 |
| 20260905153506 | 72 | 25 | 2.0 | 7.0 | 0.00 | 0.00 | 0.00 | 79 | 1012.1 |
| 20260905153007 | 71 | 30 | 2.0 | 7.0 | 0.00 | 0.00 | 0.00 | 80 | 1012.1 |
| 20260905152505 | 70 | 25 | 5.0 | 7.0 | 0.00 | 0.00 | 0.00 | 80 | 1012.1 |
| 20260905152006 | 70 | 14 | 3.0 | 7.0 | 0.00 | 0.00 | 0.00 | 80 | 1012.1 |
| 20260905151506 | 70 | 13 | 5.0 | 7.0 | 0.00 | 0.00 | 0.00 | 80 | 1012.1 |
| 20260905151006 | 70 | 9 | 5.0 | 7.0 | 0.00 | 0.00 | 0.00 | 80 | 1012.1 |
| 20260905150506 | 70 | 12 | 3.0 | 5.0 | 0.00 | 0.00 | 0.00 | 80 | 1012.1 |
| 20260905150006 | 70 | 359 | 4.0 | 7.0 | 0.00 | 0.00 | 0.00 | 80 | 1012.1 |
| 20260905145506 | 70 | 0 | 2.0 | 7.0 | 0.00 | 0.00 | 0.00 | 80 | 1012.1 |
| 20260905145006 | 70 | 11 | 2.0 | 5.0 | 0.00 | 0.00 | 0.00 | 80 | 1012.1 |
| 20260905144506 | 70 | 28 | 5.0 | 7.0 | 0.00 | 0.00 | 0.00 | 81 | 1012.1 |
| 20260905144006 | 70 | 20 | 5.0 | 9.0 | 0.00 | 0.00 | 0.00 | 80 | 1012.1 |
| 20260905143507 | 69 | 352 | 6.0 | 9.0 | 0.00 | 0.00 | 0.00 | 80 | 1012.1 |
| 20260905143006 | 70 | 15 | 5.0 | 9.0 | 0.00 | 0.00 | 0.00 | 81 | 1012.1 |
| 20260905142006 | 70 | 37 | 2.0 | 5.0 | 0.00 | 0.00 | 0.00 | 81 | 1012.1 |
| 20260905141505 | 70 | 40 | 2.0 | 5.0 | 0.00 | 0.00 | 0.00 | 81 | 1012.1 |
| 20260905141006 | 70 | 42 | 2.0 | 9.0 | 0.00 | 0.00 | 0.00 | 81 | 1012.1 |
| 20260905140506 | 69 | 34 | 5.0 | 9.0 | 0.00 | 0.00 | 0.00 | 82 | 1012.1 |
| 20260905140005 | 69 | 9 | 5.0 | 9.0 | 0.00 | 0.00 | 0.00 | 82 | 1012.1 |
| 20260905135505 | 69 | 16 | 5.0 | 9.0 | 0.00 | 0.00 | 0.00 | 82 | 1012.1 |
| 20260905135006 | 69 | 27 | 2.0 | 7.0 | 0.00 | 0.00 | 0.00 | 83 | 1012.1 |
| 20260905134505 | 69 | 16 | 5.0 | 5.0 | 0.00 | 0.00 | 0.00 | 83 | 1012.1 |
| 20260905134006 | 69 | 50 | 5.0 | 9.0 | 0.00 | 0.00 | 0.00 | 83 | 1012.1 |
| 20260905133506 | 69 | 27 | 5.0 | 9.0 | 0.00 | 0.00 | 0.00 | 83 | 1012.1 |
| 20260905133006 | 68 | 45 | 5.0 | 9.0 | 0.00 | 0.00 | 0.00 | 83 | 1012.1 |
| 20260905132505 | 68 | 10 | 6.0 | 9.0 | 0.00 | 0.00 | 0.00 | 83 | 1012.1 |
| 20260905132006 | 68 | 32 | 7.0 | 12.0 | 0.00 | 0.00 | 0.00 | 83 | 1012.1 |
| 20260905131505 | 68 | 18 | 7.0 | 12.0 | 0.00 | 0.00 | 0.00 | 82 | 1012.1 |
| 20260905131006 | 69 | 22 | 5.0 | 12.0 | 0.00 | 0.00 | 0.00 | 82 | 1012.1 |
| 20260905130506 | 69 | 28 | 4.0 | 9.0 | 0.00 | 0.00 | 0.00 | 82 | 1012.1 |
| 20260905130006 | 69 | 13 | 2.0 | 9.0 | 0.00 | 0.00 | 0.00 | 82 | 1012.1 |
| 20260905125505 | 69 | 37 | 5.0 | 9.0 | 0.00 | 0.00 | 0.00 | 81 | 1012.1 |
| 20260905125006 | 69 | 16 | 5.0 | 9.0 | 0.00 | 0.00 | 0.00 | 82 | 1012.1 |
| 20260905124505 | 69 | 21 | 5.0 | 12.0 | 0.00 | 0.00 | 0.00 | 81 | 1012.1 |
| 20260905123005 | 69 | 36 | 6.0 | 12.0 | 0.00 | 0.00 | 0.00 | 81 | 1012.1 |
| 20260905122506 | 69 | 26 | 5.0 | 7.0 | 0.00 | 0.00 | 0.00 | 81 | 1012.1 |
| 20260905122006 | 69 | 21 | 5.0 | 12.0 | 0.00 | 0.00 | 0.00 | 81 | 1012.1 |
| 20260905121506 | 69 | 9 | 5.0 | 12.0 | 0.00 | 0.00 | 0.00 | 81 | 1012.1 |
| 20260905120005 | 69 | 36 | 2.0 | 7.0 | 0.00 | 0.00 | 0.00 | 81 | 1012.1 |
| 20260905115006 | 69 | 46 | 5.0 | 9.0 | 0.00 | 0.00 | 0.00 | 82 | 1012.1 |
| 20260905114505 | 69 | 28 | 5.0 | 9.0 | 0.00 | 0.00 | 0.00 | 83 | 1012.1 |
| 20260905114007 | 69 | 18 | 5.0 | 9.0 | 0.00 | 0.00 | 0.00 | 83 | 1012.1 |
| 20260905113506 | 69 | 20 | 5.0 | 9.0 | 0.00 | 0.00 | 0.00 | 83 | 1012.1 |
| 20260905113006 | 69 | 30 | 7.0 | 9.0 | 0.00 | 0.00 | 0.00 | 82 | 1012.1 |
| 20260905112505 | 69 | 33 | 5.0 | 9.0 | 0.00 | 0.00 | 0.00 | 82 | 1012.1 |
| 20260905112007 | 69 | 27 | 5.0 | 9.0 | 0.00 | 0.00 | 0.00 | 82 | 1012.1 |
| 20260905111505 | 69 | 16 | 5.0 | 9.0 | 0.00 | 0.00 | 0.00 | 82 | 1012.1 |
| 20260905111006 | 68 | 32 | 5.0 | 9.0 | 0.00 | 0.00 | 0.00 | 82 | 1012.1 |
| 20260905110506 | 68 | 23 | 7.0 | 9.0 | 0.00 | 0.00 | 0.00 | 83 | 1012.1 |
| 20260905110006 | 68 | 348 | 7.0 | 9.0 | 0.00 | 0.00 | 0.00 | 82 | 1012.1 |
| 20260905105006 | 68 | 26 | 7.0 | 12.0 | 0.00 | 0.00 | 0.00 | 82 | 1012.1 |
| 20260905104505 | 68 | 15 | 7.0 | 9.0 | 0.00 | 0.00 | 0.00 | 81 | 1011.4 |
| 20260905104006 | 68 | 18 | 5.0 | 9.0 | 0.00 | 0.00 | 0.00 | 81 | 1011.1 |
| 20260905102505 | 68 | 18 | 5.0 | 12.0 | 0.00 | 0.00 | 0.00 | 81 | 1010.1 |
| 20260905102005 | 68 | 15 | 5.0 | 12.0 | 0.00 | 0.00 | 0.00 | 81 | 1010.1 |
| 20260905101506 | 69 | 27 | 5.0 | 12.0 | 0.00 | 0.00 | 0.00 | 80 | 1010.1 |
| 20260905101006 | 69 | 15 | 7.0 | 12.0 | 0.00 | 0.00 | 0.00 | 80 | 1010.1 |
| 20260905100506 | 69 | 10 | 7.0 | 9.0 | 0.00 | 0.00 | 0.00 | 80 | 1010.1 |
| 20260905094505 | 69 | 28 | 5.0 | 7.0 | 0.00 | 0.00 | 0.00 | 79 | 1010.1 |
| 20260905094007 | 69 | 35 | 4.0 | 9.0 | 0.00 | 0.00 | 0.00 | 79 | 1010.1 |
| 20260905093007 | 69 | 22 | 5.0 | 9.0 | 0.00 | 0.00 | 0.00 | 78 | 1010.1 |
| 20260905092008 | 69 | 36 | 2.0 | 7.0 | 0.00 | 0.00 | 0.00 | 78 | 1010.1 |
| 20260905091008 | 69 | 27 | 5.0 | 7.0 | 0.00 | 0.00 | 0.00 | 77 | 1010.1 |
| 20260905090508 | 69 | 57 | 5.0 | 9.0 | 0.00 | 0.00 | 0.00 | 77 | 1010.1 |
| 20260905090008 | 69 | 25 | 6.0 | 9.0 | 0.00 | 0.00 | 0.00 | 77 | 1010.1 |
| 20260905085507 | 69 | 33 | 2.0 | 5.0 | 0.00 | 0.00 | 0.00 | 77 | 1010.1 |
| 20260905085008 | 69 | 28 | 2.0 | 5.0 | 0.00 | 0.00 | 0.00 | 77 | 1010.1 |
| 20260905084008 | 69 | 43 | 5.0 | 9.0 | 0.00 | 0.00 | 0.00 | 77 | 1010.1 |
| 20260905083508 | 70 | 42 | 5.0 | 9.0 | 0.00 | 0.00 | 0.00 | 77 | 1010.1 |
| 20260905083009 | 70 | 22 | 7.0 | 12.0 | 0.00 | 0.00 | 0.00 | 77 | 1010.1 |
| 20260905082506 | 70 | 28 | 5.0 | 12.0 | 0.00 | 0.00 | 0.00 | 77 | 1010.1 |
| 20260905082008 | 70 | 15 | 3.0 | 7.0 | 0.00 | 0.00 | 0.00 | 77 | 1010.1 |
| 20260905081507 | 70 | 30 | 5.0 | 9.0 | 0.00 | 0.00 | 0.00 | 77 | 1010.1 |
| 20260905081008 | 70 | 8 | 5.0 | 9.0 | 0.00 | 0.00 | 0.00 | 76 | 1010.1 |
| 20260905080507 | 70 | 6 | 7.0 | 12.0 | 0.00 | 0.00 | 0.00 | 76 | 1010.1 |
| 20260905080007 | 70 | 21 | 7.0 | 12.0 | 0.00 | 0.00 | 0.00 | 76 | 1010.1 |
| 20260905075507 | 70 | 20 | 7.0 | 12.0 | 0.00 | 0.00 | 0.00 | 76 | 1010.1 |
| 20260905075007 | 70 | 15 | 7.0 | 12.0 | 0.00 | 0.00 | 0.00 | 76 | 1010.1 |
| 20260905074507 | 70 | 26 | 5.0 | 12.0 | 0.00 | 0.00 | 0.00 | 76 | 1010.1 |
| 20260905073507 | 70 | 343 | 5.0 | 9.0 | 0.00 | 0.00 | 0.00 | 76 | 1010.1 |
| 20260905072008 | 71 | 17 | 5.0 | 9.0 | 0.00 | 0.00 | 0.00 | 75 | 1010.1 |
| 20260905071507 | 70 | 49 | 2.0 | 5.0 | 0.00 | 0.00 | 0.00 | 75 | 1010.1 |
| 20260905071008 | 71 | 42 | 2.0 | 5.0 | 0.00 | 0.00 | 0.00 | 74 | 1010.1 |
| 20260905070508 | 71 | 60 | 2.0 | 5.0 | 0.00 | 0.00 | 0.00 | 75 | 1010.1 |
| 20260905065507 | 71 | 36 | 0.0 | 5.0 | 0.00 | 0.00 | 0.00 | 75 | 1010.6 |
| 20260905065008 | 71 | 47 | 2.0 | 5.0 | 0.00 | 0.00 | 0.00 | 75 | 1010.2 |
| 20260905064507 | 71 | 47 | 2.0 | 5.0 | 0.00 | 0.00 | 0.00 | 74 | 1010.4 |
| 20260905063510 | 71 | 43 | 2.0 | 5.0 | 0.00 | 0.00 | 0.00 | 74 | 1011.1 |
| 20260905063008 | 71 | 39 | 0.0 | 5.0 | 0.00 | 0.00 | 0.00 | 74 | 1010.2 |
| 20260905062507 | 71 | 47 | 2.0 | 5.0 | 0.00 | 0.00 | 0.00 | 74 | 1011.1 |
| 20260905062008 | 71 | 37 | 2.0 | 5.0 | 0.00 | 0.00 | 0.00 | 74 | 1010.6 |
| 20260905061507 | 71 | 49 | 2.0 | 5.0 | 0.00 | 0.00 | 0.00 | 74 | 1011.1 |
| 20260905061008 | 71 | 44 | 2.0 | 5.0 | 0.00 | 0.00 | 0.00 | 74 | 1011.1 |
| 20260905060507 | 71 | 53 | 2.0 | 5.0 | 0.00 | 0.00 | 0.00 | 74 | 1011.1 |
| 20260905060007 | 71 | 51 | 2.0 | 5.0 | 0.00 | 0.00 | 0.00 | 74 | 1011.1 |
| 20260905055507 | 71 | 55 | 4.0 | 7.0 | 0.00 | 0.00 | 0.00 | 74 | 1011.1 |
| 20260905055008 | 71 | 49 | 4.0 | 7.0 | 0.00 | 0.00 | 0.00 | 75 | 1011.1 |
| 20260905054507 | 71 | 51 | 4.0 | 7.0 | 0.00 | 0.00 | 0.00 | 75 | 1011.1 |
| 20260905054007 | 71 | 41 | 5.0 | 7.0 | 0.00 | 0.00 | 0.00 | 74 | 1011.1 |
| 20260905053507 | 71 | 56 | 5.0 | 7.0 | 0.00 | 0.00 | 0.00 | 74 | 1011.1 |
| 20260905053007 | 71 | 44 | 5.0 | 7.0 | 0.00 | 0.00 | 0.00 | 74 | 1011.1 |
| 20260905052507 | 71 | 56 | 5.0 | 5.0 | 0.00 | 0.00 | 0.00 | 75 | 1011.1 |
| 20260905051507 | 71 | 59 | 5.0 | 9.0 | 0.00 | 0.00 | 0.00 | 75 | 1011.1 |
| 20260905051007 | 71 | 47 | 6.0 | 9.0 | 0.00 | 0.00 | 0.00 | 74 | 1011.1 |
| 20260905050508 | 71 | 54 | 7.0 | 9.0 | 0.00 | 0.00 | 0.00 | 75 | 1011.1 |
| 20260905050007 | 71 | 51 | 7.0 | 9.0 | 0.00 | 0.00 | 0.00 | 76 | 1011.1 |
| 20260905045507 | 71 | 40 | 5.0 | 7.0 | 0.00 | 0.00 | 0.00 | 76 | 1011.1 |
| 20260905045007 | 71 | 58 | 5.0 | 7.0 | 0.00 | 0.00 | 0.00 | 76 | 1011.1 |
| 20260905044507 | 71 | 42 | 5.0 | 7.0 | 0.00 | 0.00 | 0.00 | 76 | 1011.1 |
| 20260905044007 | 71 | 21 | 5.0 | 7.0 | 0.00 | 0.00 | 0.00 | 77 | 1011.1 |
| 20260905043008 | 71 | 42 | 5.0 | 7.0 | 0.00 | 0.00 | 0.00 | 76 | 1011.1 |
| 20260905042507 | 71 | 46 | 5.0 | 7.0 | 0.00 | 0.00 | 0.00 | 77 | 1011.1 |
| 20260905042008 | 71 | 45 | 5.0 | 7.0 | 0.00 | 0.00 | 0.00 | 78 | 1011.5 |
| 20260905040507 | 69 | 285 | 0.0 | 5.0 | 0.00 | 0.00 | 0.00 | 85 | 1011.1 |
| 20260905040006 | 68 | 280 | 1.0 | 5.0 | 0.00 | 0.00 | 0.00 | 84 | 1011.1 |
| 20260905035507 | 68 | 267 | 5.0 | 5.0 | 0.00 | 0.00 | 0.00 | 83 | 1011.1 |
| 20260905035007 | 68 | 273 | 5.0 | 5.0 | 0.00 | 0.00 | 0.00 | 83 | 1011.1 |
| 20260905034507 | 68 | 277 | 5.0 | 5.0 | 0.00 | 0.00 | 0.00 | 83 | 1011.1 |